This is the latest recevied weather packets stored in our database for station/object IK2ILW-4. If no packets are shown the sender has not sent any weather packets the latest 10 day(s).
| Time | Temp. | Humidity | Pressure | Rain* | Wind** | Luminosity | Snow |
|---|---|---|---|---|---|---|---|
| 1787535466 | 15.56° C | 82% | 1023.6 hPa | 0 mm | - | 0 W/m² | - |
| 1787535155 | 15.56° C | 83% | 1023.6 hPa | 0 mm | - | 0 W/m² | - |
| 1787534870 | 15.56° C | 83% | 1023.6 hPa | 0 mm | - | 0 W/m² | - |
| 1787534570 | 15.56° C | 84% | 1023.6 hPa | 0 mm | - | 0 W/m² | - |
| 1787534258 | 15.56° C | 84% | 1023.6 hPa | 0 mm | - | 0 W/m² | - |
| 1787533971 | 15.56° C | 84% | 1022.7 hPa | 0 mm | - | 0 W/m² | - |
| 1787533663 | 15.56° C | 84% | 1022.7 hPa | 0 mm | - | 0 W/m² | - |
| 1787533375 | 15.56° C | 84% | 1022.7 hPa | 0 mm | - | 0 W/m² | - |
| 1787533072 | 15° C | 84% | 1022.8 hPa | 0 mm | - | 0 W/m² | - |
| 1787529161 | 16.11° C | 83% | 1023.9 hPa | 0 mm | - | 0 W/m² | - |
| 1787528870 | 16.11° C | 83% | 1023.9 hPa | 0 mm | - | 0 W/m² | - |
| 1787528561 | 15.56° C | 83% | 1024.1 hPa | 0 mm | - | 0 W/m² | - |
| 1787528257 | 15.56° C | 83% | 1024.1 hPa | 0 mm | - | 0 W/m² | - |
| 1787527966 | 15.56° C | 83% | 1024.1 hPa | 0 mm | - | 0 W/m² | - |
| 1787527663 | 15.56° C | 83% | 1024.1 hPa | 0 mm | - | 0 W/m² | - |
| 1787527356 | 15.56° C | 83% | 1024.1 hPa | 0 mm | - | 0 W/m² | - |
| 1787527068 | 15.56° C | 83% | 1024.1 hPa | 0 mm | - | 0 W/m² | - |
| 1787526762 | 16.11° C | 83% | 1023.3 hPa | 0 mm | - | 0 W/m² | - |
| 1787526458 | 15.56° C | 83% | 1023.3 hPa | 0 mm | - | 0 W/m² | - |
| 1787526169 | 15.56° C | 83% | 1023.3 hPa | 0 mm | - | 0 W/m² | - |
| 1787525868 | 16.11° C | 83% | 1024.4 hPa | 0 mm | - | 0 W/m² | - |
| 1787525563 | 16.11° C | 82% | 1024.4 hPa | 0 mm | - | 0 W/m² | - |
| 1787525262 | 16.11° C | 82% | 1024.4 hPa | 0 mm | - | 0 W/m² | - |
| 1787524960 | 16.11° C | 81% | 1024.3 hPa | 0 mm | - | 0 W/m² | - |
| 1787524659 | 16.67° C | 81% | 1024.3 hPa | 0 mm | - | 0 W/m² | - |
* Rain since midnight (hover to see other rain measurements)
** Current wind speed in m/s (hover to see current wind gust speed)